Zurück zum Katalog

COSMOS 2527

GLONASS

AktivNavigationMEO
NORAD 43508·PAYLOAD·🇷🇺 Russia

Gestartet Jun 16, 2018 von Plesetsk Cosmodrome

Loading…

Nächste Überflüge (nächste 24 Stunden)

TLE

AktuellSource: CelesTrak SupGP

Epoche: Sep 13, 2026, 23:59 UTC

1 43508C 18053A   26256.99979167  .00000000  00000+0  00000+0 0  2569
2 43508  65.6321  70.9473 0007354 213.3464 318.9914  2.13102272    13

Verfolge COSMOS 2527 in Echtzeit mit AllMySat

Download on the App Store